Fryeburg, ME

6:04 AM EDT on May 26, 2017 (GMT -0400)
Eastern Slopes Regional

Weather History for KIZG - September, 2012

Change the Weather History Date:

Sunday, September 9, 2012

  Actual Average Record
Temperature  
Mean Temperature 60 °F -  
Max Temperature 71 °F 73 °F 99 °F (2002)
Min Temperature 48 °F 46 °F 33 °F (2013)
Degree Days  
Heating Degree Days 4    
Growing Degree Days 10 (Base 50)    
Moisture  
Dew Point 54 °F    
Average Humidity 80    
Maximum Humidity 97    
Minimum Humidity 49    
Precipitation  
Precipitation 0.03 in - - ()
Sea Level Pressure  
Sea Level Pressure 29.80 in    
Wind  
Wind Speed 2 mph (West)    
Max Wind Speed 8 mph    
Max Gust Speed -    
Visibility 10 miles    
Events Rain    
Averages and records for this station are not official NWS values.
T = Trace of Precipitation, MM = Missing Value Source: NWS Daily Summary

Daily Weather History Graph

Daily Weather History Graph

Search for Another Location

Airport or City:

Trip Planner

Search our weather history database for the weather conditions in past years. The results will help you decide how hot, cold, wet, or windy it might be!

Date:

Astronomy

Sep. 09, 2012 Rise Set
Actual Time 6:16 AM EDT 7:04 PM EDT
Civil Twilight 5:47 AM EDT 7:33 PM EDT
Nautical Twilight 5:12 AM EDT 8:08 PM EDT
Astronomical Twilight 4:36 AM EDT 8:44 PM EDT
Moon No Moon Rise 2:56 PM EDT (9/9)
Length of Visible Light 13h 46m
Length of Day
12h 47m
Last Quarter, 39% of the Moon is Illuminated
Sep 9
Last Quarter
Sep 15
New
Sep 22
First Quarter
Sep 29
Full
Oct 8
Last Quarter

Hourly Weather History & Observations

Time (EDT) Temp. Dew Point Humidity Pressure Visibility Wind Dir Wind Speed Gust Speed Precip Events Conditions
12:54 AM 62.1 °F 59.0 °F 90% 29.67 in 10.0 mi Variable 4.6 mph - N/A   Overcast
1:54 AM 61.0 °F 57.9 °F 90% 29.68 in 10.0 mi WSW 3.5 mph - 0.00 in Rain Light Rain
2:54 AM 60.1 °F 57.9 °F 93% 29.68 in 10.0 mi Calm Calm - 0.01 in Rain Light Rain
3:54 AM 59.0 °F 57.9 °F 96% 29.70 in 10.0 mi SW 4.6 mph - 0.01 in   Mostly Cloudy
4:54 AM 59.0 °F 57.0 °F 93% 29.71 in 10.0 mi WSW 6.9 mph - N/A   Clear
5:54 AM 59.0 °F 51.1 °F 75% 29.75 in 10.0 mi Variable 6.9 mph - N/A   Clear
6:54 AM 57.0 °F 50.0 °F 77% 29.77 in 10.0 mi West 3.5 mph - N/A   Clear
7:50 AM 57.2 °F 53.6 °F 88% 29.80 in 10.0 mi Calm Calm - 0.00 in Rain Light Rain
7:54 AM 57.9 °F 53.1 °F 84% 29.80 in 10.0 mi Calm Calm - 0.00 in Rain Light Rain
8:31 AM 59.0 °F 55.4 °F 88% 29.80 in 10.0 mi Calm Calm - N/A   Scattered Clouds
8:54 AM 60.1 °F 52.0 °F 75% 29.81 in 10.0 mi Calm Calm - N/A   Partly Cloudy
10:54 AM 63.0 °F 53.1 °F 70% 29.83 in 10.0 mi Calm Calm - 0.00 in   Clear
11:54 AM 64.0 °F 50.0 °F 60% 29.83 in 10.0 mi Calm Calm - N/A   Clear
12:54 PM 68.0 °F 51.1 °F 55% 29.83 in 10.0 mi Calm Calm - N/A   Clear
1:54 PM 69.1 °F 53.1 °F 57% 29.82 in 10.0 mi NE 3.5 mph - N/A   Clear
2:54 PM 71.1 °F 51.1 °F 49% 29.81 in 10.0 mi NE 8.1 mph - N/A   Clear
3:54 PM 69.1 °F 51.1 °F 53% 29.81 in 10.0 mi Calm Calm - N/A   Clear
4:54 PM 69.1 °F 54.0 °F 58% 29.81 in 10.0 mi Calm Calm - N/A   Partly Cloudy
5:54 PM 66.9 °F 60.1 °F 79% 29.82 in 10.0 mi Calm Calm - N/A   Overcast
6:54 PM 63.0 °F 57.0 °F 81% 29.84 in 10.0 mi Calm Calm - 0.00 in   Overcast
7:54 PM 57.9 °F 55.9 °F 93% 29.85 in 10.0 mi Calm Calm - N/A   Scattered Clouds
8:54 PM 55.0 °F 54.0 °F 96% 29.87 in 10.0 mi Calm Calm - N/A   Clear
9:54 PM 53.1 °F 52.0 °F 96% 29.88 in 10.0 mi Calm Calm - 0.00 in   Mostly Cloudy
10:54 PM 50.0 °F 48.9 °F 96% 29.88 in 3.0 mi Calm Calm - N/A   Clear
11:54 PM 48.9 °F 48.0 °F 97% 29.88 in 9.0 mi Calm Calm - 0.01 in   Clear